TimeEST,TemperatureF,Dew PointF,Humidity,Sea Level PressureIn,VisibilityMPH,Wind Direction,Wind SpeedMPH,Gust SpeedMPH,PrecipitationIn,Events,Conditions,WindDirDegrees,DateUTC
12:03 AM,34.2,24.6,68,30.36,10.0,South,5.8,-,N/A,,Clear,190,2012-11-15 05:03:00
12:37 AM,33.3,24.3,70,30.36,10.0,SSW,8.1,-,N/A,,Clear,200,2012-11-15 05:37:00
12:55 AM,35.1,25.3,68,30.36,10.0,SW,6.9,-,N/A,,Scattered Clouds,230,2012-11-15 05:55:00
1:14 AM,35.2,25.3,67,30.36,10.0,SW,4.6,-,N/A,,Mostly Cloudy,220,2012-11-15 06:14:00
1:35 AM,35.2,25.3,67,30.35,10.0,SSW,4.6,-,N/A,,Overcast,200,2012-11-15 06:35:00
1:55 AM,35.2,25.3,67,30.36,10.0,SSW,5.8,-,N/A,,Scattered Clouds,200,2012-11-15 06:55:00
2:14 AM,35.2,24.8,66,30.35,10.0,SSW,3.5,-,N/A,,Scattered Clouds,200,2012-11-15 07:14:00
2:35 AM,35.2,25.3,67,30.36,10.0,Calm,Calm,-,N/A,,Overcast,0,2012-11-15 07:35:00
2:55 AM,34.7,25.7,70,30.35,10.0,SSW,5.8,-,N/A,,Overcast,200,2012-11-15 07:55:00
3:14 AM,35.2,25.5,68,30.35,10.0,SSW,5.8,-,N/A,,Overcast,210,2012-11-15 08:14:00
3:35 AM,35.2,25.7,68,30.35,10.0,SSW,4.6,-,N/A,,Mostly Cloudy,210,2012-11-15 08:35:00
3:54 AM,35.2,25.2,67,30.34,10.0,South,4.6,-,N/A,,Overcast,190,2012-11-15 08:54:00
4:15 AM,35.2,25.3,67,30.33,10.0,SSW,4.6,-,N/A,,Overcast,210,2012-11-15 09:15:00
4:35 AM,35.2,25.5,68,30.33,10.0,Calm,Calm,-,N/A,,Overcast,0,2012-11-15 09:35:00
4:54 AM,35.2,25.3,67,30.33,10.0,South,3.5,-,N/A,,Overcast,180,2012-11-15 09:54:00
5:15 AM,35.2,25.7,68,30.34,10.0,SSW,3.5,-,N/A,,Overcast,210,2012-11-15 10:15:00
5:35 AM,35.2,25.7,68,30.33,10.0,SSW,5.8,-,N/A,,Overcast,210,2012-11-15 10:35:00
5:54 AM,35.2,26.1,69,30.33,10.0,SSW,5.8,-,N/A,,Mostly Cloudy,210,2012-11-15 10:54:00
6:15 AM,35.2,26.4,70,30.32,10.0,SSW,3.5,-,N/A,,Scattered Clouds,210,2012-11-15 11:15:00
6:35 AM,35.2,27.0,72,30.32,10.0,SW,3.5,-,N/A,,Clear,220,2012-11-15 11:35:00
6:54 AM,35.2,27.5,73,30.32,10.0,SW,5.8,-,N/A,,Clear,220,2012-11-15 11:54:00
7:15 AM,35.2,27.5,73,30.32,10.0,SW,6.9,-,N/A,,Clear,230,2012-11-15 12:15:00
7:35 AM,35.2,27.5,73,30.32,10.0,WNW,3.5,-,N/A,,Clear,290,2012-11-15 12:35:00
7:54 AM,35.2,27.5,73,30.32,10.0,SSW,4.6,-,N/A,,Clear,210,2012-11-15 12:54:00
8:15 AM,35.2,27.5,73,30.31,10.0,West,5.8,-,N/A,,Clear,260,2012-11-15 13:15:00
8:54 AM,35.8,28.6,75,30.32,10.0,WSW,4.6,-,N/A,,Scattered Clouds,240,2012-11-15 13:54:00
9:15 AM,36.3,29.3,76,30.31,10.0,SSW,6.9,-,N/A,,Overcast,210,2012-11-15 14:15:00
9:34 AM,37.6,30.9,77,30.31,10.0,SSW,4.6,-,N/A,,Overcast,210,2012-11-15 14:34:00
9:55 AM,37.6,30.4,75,30.31,10.0,SSW,8.1,-,N/A,,Mostly Cloudy,210,2012-11-15 14:55:00
10:15 AM,37.6,30.7,76,30.31,10.0,SSW,5.8,-,N/A,,Scattered Clouds,200,2012-11-15 15:15:00
10:34 AM,37.6,30.6,76,30.31,10.0,SSW,6.9,-,N/A,,Clear,210,2012-11-15 15:34:00
10:55 AM,39.9,31.6,72,30.32,10.0,SSW,4.6,-,N/A,,Clear,200,2012-11-15 15:55:00
11:15 AM,39.9,31.8,73,30.31,10.0,SSW,5.8,-,N/A,,Clear,210,2012-11-15 16:15:00
11:34 AM,41.9,32.2,68,30.30,10.0,SSW,5.8,-,N/A,,Clear,210,2012-11-15 16:34:00
11:55 AM,43.3,32.5,66,30.29,10.0,South,5.8,-,N/A,,Clear,190,2012-11-15 16:55:00
12:15 PM,45.3,33.4,63,30.28,10.0,SW,3.5,-,N/A,,Clear,220,2012-11-15 17:15:00
12:34 PM,46.8,33.4,60,30.27,10.0,SW,5.8,-,N/A,,Clear,220,2012-11-15 17:34:00
12:55 PM,47.7,33.3,57,30.26,10.0,SW,5.8,-,N/A,,Clear,230,2012-11-15 17:55:00
1:15 PM,47.7,32.5,56,30.26,10.0,SW,9.2,-,N/A,,Clear,230,2012-11-15 18:15:00
1:34 PM,47.7,32.7,56,30.26,10.0,SSW,6.9,-,N/A,,Clear,210,2012-11-15 18:34:00
1:55 PM,47.7,32.2,55,30.25,10.0,SW,6.9,-,N/A,,Clear,220,2012-11-15 18:55:00
2:15 PM,47.7,32.4,55,30.25,10.0,SSW,8.1,-,N/A,,Clear,210,2012-11-15 19:15:00
2:34 PM,47.7,33.3,57,30.24,10.0,SSW,6.9,-,N/A,,Scattered Clouds,210,2012-11-15 19:34:00
2:55 PM,47.7,33.8,59,30.24,10.0,SW,5.8,-,N/A,,Overcast,220,2012-11-15 19:55:00
3:15 PM,47.7,33.8,59,30.24,10.0,SW,6.9,-,N/A,,Overcast,230,2012-11-15 20:15:00
3:34 PM,47.7,33.8,59,30.24,10.0,WSW,9.2,-,N/A,,Overcast,240,2012-11-15 20:34:00
3:55 PM,47.7,34.7,61,30.25,10.0,SW,5.8,-,N/A,,Overcast,230,2012-11-15 20:55:00
4:15 PM,47.7,34.3,60,30.25,10.0,SW,9.2,-,N/A,,Overcast,220,2012-11-15 21:15:00
4:34 PM,47.7,34.9,61,30.25,10.0,SW,9.2,-,N/A,,Overcast,230,2012-11-15 21:34:00
4:55 PM,47.7,35.2,62,30.25,10.0,SW,5.8,-,N/A,,Overcast,220,2012-11-15 21:55:00
5:15 PM,47.7,34.7,61,30.25,10.0,SW,6.9,-,N/A,,Overcast,220,2012-11-15 22:15:00
5:34 PM,45.5,32.5,61,30.25,10.0,SW,4.6,-,N/A,,Mostly Cloudy,230,2012-11-15 22:34:00
5:55 PM,45.3,32.5,61,30.26,10.0,SSW,6.9,-,N/A,,Mostly Cloudy,210,2012-11-15 22:55:00
6:35 PM,44.6,32.7,63,30.26,10.0,SW,4.6,-,N/A,,Scattered Clouds,220,2012-11-15 23:35:00
6:55 PM,43.5,32.0,64,30.26,10.0,SW,5.8,-,N/A,,Clear,220,2012-11-15 23:55:00
7:14 PM,42.8,32.0,66,30.26,10.0,SW,5.8,-,N/A,,Clear,220,2012-11-16 00:14:00
7:35 PM,42.8,32.2,66,30.27,10.0,SW,4.6,-,N/A,,Clear,230,2012-11-16 00:35:00
7:55 PM,42.8,32.4,67,30.27,10.0,SW,4.6,-,N/A,,Clear,230,2012-11-16 00:55:00
8:14 PM,42.8,32.4,67,30.27,10.0,WSW,8.1,-,N/A,,Clear,240,2012-11-16 01:14:00
8:35 PM,42.3,32.0,67,30.27,10.0,SW,8.1,-,N/A,,Clear,220,2012-11-16 01:35:00
8:55 PM,41.9,32.0,68,30.28,10.0,SW,9.2,-,N/A,,Clear,230,2012-11-16 01:55:00
9:14 PM,41.4,32.0,69,30.29,10.0,SW,8.1,-,N/A,,Clear,230,2012-11-16 02:14:00
9:35 PM,41.4,32.9,72,30.30,10.0,WSW,4.6,-,N/A,,Clear,240,2012-11-16 02:35:00
9:55 PM,41.0,32.9,73,30.30,10.0,SW,9.2,-,N/A,,Clear,230,2012-11-16 02:55:00
10:14 PM,40.3,32.9,75,30.31,10.0,SW,6.9,-,N/A,,Clear,230,2012-11-16 03:14:00
10:35 PM,40.3,33.4,77,30.31,10.0,SW,6.9,-,N/A,,Mostly Cloudy,220,2012-11-16 03:35:00
10:55 PM,40.5,33.6,77,30.31,10.0,SW,6.9,-,N/A,,Overcast,230,2012-11-16 03:55:00
11:14 PM,40.1,33.8,78,30.31,10.0,SW,5.8,-,N/A,,Mostly Cloudy,220,2012-11-16 04:14:00
11:35 PM,40.1,34.0,79,30.31,10.0,SSW,4.6,-,N/A,,Mostly Cloudy,210,2012-11-16 04:35:00
11:55 PM,40.1,33.8,78,30.31,10.0,SSW,5.8,-,N/A,,Overcast,210,2012-11-16 04:55:00